Stations météo

Publicité
Grenoble/St.Geoirs, France (7486): Température de l'air & dewpoint: 03.07.2020 15:00:00 - 09.07.2020 15:00:00 (CEST)Grenoble/St.Geoirs, France (7486): Température de l'air 5cm: 03.07.2020 15:00:00 - 09.07.2020 15:00:00 (CEST)Grenoble/St.Geoirs, France (7486): Température de l'air -20cm & Température de l'air -100cm: 03.07.2020 15:00:00 - 09.07.2020 15:00:00 (CEST)Grenoble/St.Geoirs, France (7486): Vitesse du vent & gusts: 03.07.2020 15:00:00 - 09.07.2020 15:00:00 (CEST)Grenoble/St.Geoirs, France (7486): Direction du vent: 03.07.2020 15:00:00 - 09.07.2020 15:00:00 (CEST)Grenoble/St.Geoirs, France (7486): reduced air pressure: 03.07.2020 15:00:00 - 09.07.2020 15:00:00 (CEST)Grenoble/St.Geoirs, France (7486): visibility: 03.07.2020 15:00:00 - 09.07.2020 15:00:00 (CEST)Grenoble/St.Geoirs, France (7486): Ensoleillement: 03.07.2020 15:00:00 - 09.07.2020 15:00:00 (CEST)Grenoble/St.Geoirs, France (7486): Quantités de précipitations: 03.07.2020 15:00:00 - 09.07.2020 15:00:00 (CEST)
Date & Time tt [°C] td [°C] tt 5cm [°C] tt -20cm [°C] tt -100cm [°C] ff [km/h] ff [knt] fx [km/h] fx [knt] dd ppp [hPa] vv [km] sd [min] rr [mm]
09.07.2020 15:00:00 31,3 13,1 38,9 20,9 18,6 8 5 18 10 WSW 1014,4 14 60 0,0
09.07.2020 14:00:00 30,2 11,7 38,5 20,7 18,6 9 5 27 15 W 1015,1 14 60 0,0
09.07.2020 13:00:00 29,3 14,7 37,3 20,7 18,6 12 7 22 12 SW 1015,6 23 60 0,0
09.07.2020 12:00:00 28,2 13,3 34,0 20,7 18,6 6 3 20 11 E 1015,8 17 60 0,0
09.07.2020 11:00:00 26,3 12,7 30,3 20,8 18,6 11 6 29 16 E 1016,3 16 60 0,0
09.07.2020 10:00:00 24,3 11,9 27,8 20,9 18,6 18 10 29 15 ENE 1016,7 6 60 0,0
09.07.2020 09:00:00 22,1 12,9 26,1 21,0 18,6 16 8 22 12 E 1017,4 8 60 0,0
09.07.2020 08:00:00 19,3 12,8 16,3 21,2 18,6 6 4 14 8 E 1017,7 18 60 0,0
09.07.2020 07:00:00 13,8 11,5 8,4 21,4 18,6 6 4 13 7 E 1018,4 30 23 0,0
09.07.2020 06:00:00 11,1 9,4 8,0 21,5 18,6 9 5 10 6 E 1018,7 31 0 0,0
09.07.2020 05:00:00 12,1 9,5 8,9 21,6 18,6 7 4 11 6 E 1018,7 29 0 0,0
09.07.2020 04:00:00 12,4 10,5 9,6 21,7 18,6 8 5 15 8 E 1018,4 42 0 0,0
09.07.2020 03:00:00 13,2 10,2 9,0 21,8 18,6 12 6 14 8 E 1018,4 33 0 0,0
09.07.2020 02:00:00 14,1 10,1 9,9 21,9 18,6 4 2 10 5 E 1018,5 35 0 0,0
09.07.2020 01:00:00 14,8 10,2 11,4 22,0 18,6 8 5 11 6 E 1018,2 33 0 0,0
09.07.2020 00:00:00 16,3 10,6 12,5 22,0 18,6 9 5 13 7 ESE 1017,9 32 0 0,0
08.07.2020 23:00:00 17,5 10,8 11,6 21,9 18,6 8 4 13 7 ESE 1017,5 31 0 0,0
08.07.2020 22:00:00 20,1 10,2 11,9 21,9 18,6 6 3 16 9 NE 1016,8 39 0 0,0
08.07.2020 21:00:00 24,8 9,5 19,2 21,8 18,6 7 4 12 7 N 1016,1 47 46 0,0
08.07.2020 20:00:00 27,2 7,6 29,4 21,6 18,7 10 5 17 9 N 1015,5 43 60 0,0
08.07.2020 19:00:00 28,1 5,6 33,9 21,4 18,6 10 6 22 12 N 1015,6 19 60 0,0
08.07.2020 18:00:00 28,3 6,4 37,0 21,2 18,7 11 6 23 13 NW 1015,9 25 60 0,0
08.07.2020 17:00:00 28,0 6,7 38,8 20,9 18,6 10 6 29 16 NNW 1016,4 14 60 0,0
08.07.2020 16:00:00 27,6 7,4 36,8 20,7 18,6 8 5 23 12 N 1016,6 20 60 0,0
08.07.2020 15:00:00 26,7 10,0 36,2 20,6 18,6 13 7 24 13 NW 1016,9 15 60 0,0
08.07.2020 14:00:00 26,1 9,9 34,2 20,5 18,6 9 5 27 14 NNE 1017,3 19 60 0,0
08.07.2020 13:00:00 25,2 8,2 34,4 20,4 18,6 14 8 30 16 N 1017,7 20 60 0,0
08.07.2020 12:00:00 24,6 8,5 33,0 20,5 18,6 13 7 34 18 N 1017,6 20 60 0,0
08.07.2020 11:00:00 23,2 8,5 30,5 20,6 18,6 5 3 21 12 NW 1017,7 19 60 0,0
08.07.2020 10:00:00 20,4 9,9 28,8 20,7 18,6 4 2 11 6 WSW 1018,2 18 60 0,0
08.07.2020 09:00:00 17,5 8,4 23,4 20,8 18,6 6 3 10 6 W 1018,7 22 60 0,0
08.07.2020 08:00:00 15,1 8,6 13,7 21,0 18,6 5 3 12 7 ESE 1018,7 15 60 0,0
08.07.2020 07:00:00 11,2 9,1 6,6 21,2 18,6 11 6 13 7 E 1019,2 25 31 0,0
08.07.2020 06:00:00 9,0 7,3 6,5 21,3 18,6 10 5 13 7 E 1019,4 33 0 0,0
08.07.2020 05:00:00 9,5 7,1 6,6 21,4 18,7 9 5 12 7 ESE 1018,9 39 0 0,0
08.07.2020 04:00:00 9,8 7,4 5,9 21,5 18,6 8 4 10 5 E 1019,2 43 0 0,0
08.07.2020 03:00:00 11,4 7,7 6,4 21,7 18,7 6 3 9 5 ESE 1019,1 41 0 0,0
08.07.2020 02:00:00 12,4 8,1 6,9 21,8 18,6 6 3 10 5 E 1019,0 41 0 0,0
08.07.2020 01:00:00 14,3 7,6 9,6 21,8 18,6 7 4 14 8 SE 1018,7 43 0 0,0
08.07.2020 00:00:00 16,7 6,5 11,0 21,9 18,7 6 4 16 9 E 1018,4 50 0 0,0
07.07.2020 23:00:00 17,1 6,6 9,9 21,9 18,6 3 2 10 6 NNW 1018,5 43 0 0,0
07.07.2020 22:00:00 18,3 6,5 11,6 21,8 18,7 4 2 19 10 NNE 1017,9 10 0 0,0
07.07.2020 21:00:00 21,4 6,5 19,0 21,7 18,6 10 5 25 13 NNW 1017,1 48 53 0,0
07.07.2020 20:00:00 23,5 7,6 25,5 21,6 18,6 16 9 29 15 NNW 1016,5 17 60 0,0
07.07.2020 19:00:00 24,3 7,9 29,7 21,4 18,6 17 9 31 17 NNW 1016,3 10 60 0,0
07.07.2020 18:00:00 24,7 8,6 32,6 21,2 18,6 12 7 33 18 NNW 1016,4 13 60 0,0
07.07.2020 17:00:00 24,3 7,4 32,6 21,0 18,7 14 8 31 17 N 1016,9 7 60 0,0
07.07.2020 16:00:00 24,3 7,9 34,2 20,8 18,7 16 9 36 20 NNW 1017,1 11 60 0,0
07.07.2020 15:00:00 23,9 7,9 32,6 20,7 18,7 16 9 51 27 N 1017,4 11 60 0,0
07.07.2020 14:00:00 23,3 7,4 30,1 20,6 18,6 18 10 40 21 N 1017,7 3,4 60 0,0
07.07.2020 13:00:00 22,3 7,7 30,5 20,6 18,6 22 12 37 20 N 1017,9 7 60 0,0
07.07.2020 12:00:00 20,8 7,1 29,2 20,6 18,6 20 11 47 25 N 1018,6 14 60 0,0
07.07.2020 11:00:00 19,4 7,2 28,4 20,7 18,6 18 10 30 16 NW 1018,6 8 60 0,0
07.07.2020 10:00:00 18,5 7,0 26,5 20,9 18,7 15 8 25 13 NNW 1018,7 2,1 60 0,0
07.07.2020 09:00:00 15,8 7,0 20,6 21,0 18,6 10 5 22 12 NW 1019,1 9 60 0,0
07.07.2020 08:00:00 13,7 7,2 12,6 21,2 18,6 8 4 16 9 W 1019,2 9 60 0,0
07.07.2020 07:00:00 10,7 7,0 3,4 21,3 18,6 2 1 10 5 SE 1019,6 9 27 0,0
07.07.2020 06:00:00 9,6 6,1 3,7 21,5 18,6 3 2 10 5 NW 1019,8 31 0 0,0
07.07.2020 05:00:00 11,0 5,9 3,7 21,6 18,6 4 2 14 8 NNW 1019,5 37 0 0,0
07.07.2020 04:00:00 11,9 5,5 5,1 21,8 18,6 2 1 24 13 NNW 1019,6 39 0 0,0
07.07.2020 03:00:00 14,1 6,0 11,6 21,9 18,6 13 7 35 19 N 1019,6 41 0 0,0
07.07.2020 02:00:00 15,4 6,1 13,6 22,0 18,6 19 11 40 22 N 1019,4 41 0 0,0
07.07.2020 01:00:00 16,1 6,2 14,2 22,1 18,6 21 12 43 23 N 1019,2 42 0 0,0
07.07.2020 00:00:00 17,1 6,0 15,0 22,2 18,6 26 14 46 25 N 1019,2 43 0 0,0
06.07.2020 23:00:00 17,9 4,8 15,4 22,2 18,6 20 11 39 21 N 1019,3 50 0 0,0
06.07.2020 22:00:00 18,8 5,3 16,0 22,2 18,6 18 10 41 22 N 1018,8 52 0 0,0
06.07.2020 21:00:00 20,5 5,7 18,7 22,1 18,6 18 10 41 22 NNW 1018,1 25 56 0,0
06.07.2020 20:00:00 22,1 5,5 23,6 22,0 18,6 25 13 43 23 NNW 1017,7 9 60 0,0
06.07.2020 19:00:00 23,2 6,0 27,9 21,8 18,6 22 12 45 24 N 1017,5 14 60 0,0
06.07.2020 18:00:00 23,9 7,1 30,4 21,7 18,6 25 14 47 25 NNW 1017,5 8 60 0,0
06.07.2020 17:00:00 24,5 9,6 32,0 21,5 18,6 26 14 43 23 N 1017,2 9 60 0,0
06.07.2020 16:00:00 24,8 11,0 28,2 21,4 18,6 22 12 46 25 NNW 1017,2 9 46 0,0
06.07.2020 15:00:00 24,4 12,4 28,7 21,2 18,7 19 11 39 21 NNW 1017,5 8 49 0,0
06.07.2020 14:00:00 23,6 14,6 26,6 21,3 18,6 25 13 44 24 NW 1017,6 5 31 0,0
06.07.2020 13:00:00 22,4 15,5 25,6 21,2 18,6 26 14 46 25 NNW 1017,9 8 18 0,0
06.07.2020 12:00:00 21,6 15,2 26,1 21,2 18,6 26 14 44 24 NW 1017,9 6 45 0,0
06.07.2020 11:00:00 20,9 14,5 25,0 21,2 18,6 29 15 44 24 N 1018,4 4,4 44 0,0
06.07.2020 10:00:00 22,6 15,4 23,1 21,3 18,6 17 9 32 18 NNW 1017,8 5 41 0,0
06.07.2020 09:00:00 20,9 15,9 22,6 21,4 18,6 14 8 26 14 N 1017,8 17 21 0,0
06.07.2020 08:00:00 21,2 16,4 19,7 21,5 18,7 13 7 27 15 N 1017,9 6 51 0,0
06.07.2020 07:00:00 19,3 16,5 12,6 21,7 18,6 13 7 24 13 NNW 1017,9 21 27 0,0
06.07.2020 06:00:00 15,5 14,0 11,0 21,8 18,6 2 1 11 6 WSW 1018,4 47 0 0,0
06.07.2020 05:00:00 15,1 13,5 10,2 21,9 18,6 7 4 10 6 SE 1018,1 40 0 0,0
06.07.2020 04:00:00 15,7 14,1 11,9 22,0 18,6 6 4 11 6 NE 1018,3 43 0 0,0
06.07.2020 03:00:00 16,3 14,7 12,7 22,1 18,6 6 3 14 7 ENE 1018,7 42 0 0,0
06.07.2020 02:00:00 16,4 14,2 12,8 22,2 18,6 9 5 12 7 ESE 1019,0 50 0 0,0
06.07.2020 01:00:00 18,2 14,5 12,6 22,3 18,6 5 3 11 6 SE 1018,8 44 0 0,0
06.07.2020 00:00:00 18,1 14,8 13,5 22,3 18,5 9 5 13 7 NE 1018,4 53 0 0,0
05.07.2020 23:00:00 19,4 15,1 14,9 22,2 18,6 6 3 16 9 ENE 1018,1 54 0 0,0
05.07.2020 22:00:00 21,9 15,3 16,1 22,2 18,6 8 4 16 9 NE 1017,4 48 0 0,0
05.07.2020 21:00:00 25,3 15,6 22,5 22,0 18,6 5 3 18 10 NE 1016,5 50 51 0,0
05.07.2020 20:00:00 27,1 15,8 29,6 21,8 18,6 11 6 27 15 N 1016,4 29 60 0,0
05.07.2020 19:00:00 27,7 15,7 32,5 21,6 18,6 15 8 39 21 N 1016,6 13 60 0,0
05.07.2020 18:00:00 28,2 15,5 35,8 21,4 18,6 12 7 29 16 N 1016,6 14 60 0,0
05.07.2020 17:00:00 28,2 16,5 36,9 21,2 18,6 11 6 28 15 N 1016,8 9 60 0,0
05.07.2020 16:00:00 28,0 16,3 36,8 21,0 18,6 12 6 36 20 N 1017,2 18 60 0,0
05.07.2020 15:00:00 27,0 15,7 35,5 20,8 18,6 12 7 31 17 NNW 1017,7 11 60 0,0
05.07.2020 14:00:00 26,6 15,9 34,0 20,7 18,6 16 9 31 17 N 1018,4 9 57 0,0
05.07.2020 13:00:00 25,8 15,5 32,3 20,7 18,6 13 7 26 14 N 1019,1 26 60 0,0
05.07.2020 12:00:00 24,8 15,1 32,2 20,6 18,6 17 9 36 19 NNW 1019,4 17 60 0,0
05.07.2020 11:00:00 23,6 14,6 31,2 20,7 18,6 14 7 27 15 NNE 1019,8 15 60 0,0
05.07.2020 10:00:00 22,7 13,7 29,7 20,8 18,6 15 8 27 15 N 1020,4 4,9 60 0,0
05.07.2020 09:00:00 21,6 14,0 27,7 20,9 18,6 6 3 14 8 WNW 1020,7 6 60 0,0
05.07.2020 08:00:00 18,4 13,3 17,5 21,0 18,6 4 2 7 4 S 1021,2 34 60 0,0
05.07.2020 07:00:00 14,6 12,1 9,2 21,2 18,6 5 3 10 5 SE 1021,9 26 27 0,0
05.07.2020 06:00:00 12,6 10,3 9,0 21,3 18,6 4 2 7 4 ESE 1022,3 34 0 0,0
05.07.2020 05:00:00 12,5 10,4 8,5 21,4 18,6 5 3 9 5 ESE 1022,4 38 0 0,0
05.07.2020 04:00:00 12,7 10,6 8,9 21,6 18,6 5 3 10 6 E 1022,3 34 0 0,0
05.07.2020 03:00:00 12,9 9,9 9,5 21,7 18,6 5 3 8 4 E 1022,7 37 0 0,0
05.07.2020 02:00:00 14,2 10,6 9,9 21,8 18,6 4 2 9 5 E 1022,3 40 0 0,0
05.07.2020 01:00:00 15,2 10,6 10,8 21,8 18,6 7 4 14 7 E 1022,0 41 0 0,0
05.07.2020 00:00:00 16,1 11,0 11,6 21,9 18,6 6 3 10 6 E 1021,8 40 0 0,0
04.07.2020 23:00:00 17,1 10,9 11,7 21,9 18,6 6 3 10 6 SE 1021,5 39 0 0,0
04.07.2020 22:00:00 17,0 11,0 13,4 21,8 18,6 8 4 16 9 E 1021,1 45 0 0,0
04.07.2020 21:00:00 20,6 9,5 17,1 21,7 18,6 10 5 19 11 N 1020,4 49 4 0,0
04.07.2020 20:00:00 24,1 8,5 25,7 21,5 18,6 13 7 28 15 N 1019,5 32 60 0,0
04.07.2020 19:00:00 24,9 9,6 30,1 21,3 18,6 14 7 25 14 N 1019,1 17 60 0,0
04.07.2020 18:00:00 25,3 10,7 33,3 21,1 18,6 13 7 27 14 N 1019,3 21 60 0,0
04.07.2020 17:00:00 24,8 9,1 34,3 20,9 18,6 15 8 28 15 NNW 1019,7 9 60 0,0
04.07.2020 16:00:00 24,6 10,1 34,6 20,7 18,6 13 7 29 16 NNW 1019,8 15 60 0,0
04.07.2020 15:00:00 24,2 11,2 33,1 20,5 18,6 15 8 29 16 NNW 1019,9 13 60 0,0
04.07.2020 14:00:00 23,3 11,4 30,7 20,4 18,6 15 8 32 17 NW 1020,5 14 60 0,0
04.07.2020 13:00:00 22,6 11,0 31,1 20,4 18,6 15 8 31 17 NNW 1021,1 6 60 0,0
04.07.2020 12:00:00 21,8 10,3 29,3 20,4 18,6 21 12 35 19 NW 1021,3 13 60 0,0
04.07.2020 11:00:00 20,9 10,4 27,7 20,4 18,6 20 11 37 20 N 1021,4 6 60 0,0
04.07.2020 10:00:00 19,7 10,1 26,1 20,5 18,6 18 10 36 19 N 1021,7 6 60 0,0
04.07.2020 09:00:00 18,2 10,3 24,4 20,6 18,6 9 5 21 12 N 1021,8 20 60 0,0
04.07.2020 08:00:00 16,8 9,7 17,0 20,7 18,6 5 3 19 10 N 1021,7 18 60 0,0
04.07.2020 07:00:00 15,4 9,3 12,7 20,8 18,6 4 2 14 8 NNW 1021,7 9 36 0,0
04.07.2020 06:00:00 14,3 9,3 10,9 20,9 18,6 6 3 18 10 S 1021,6 44 0 0,0
04.07.2020 05:00:00 15,1 9,5 13,1 21,0 18,6 10 5 28 15 N 1021,1 49 0 0,0
04.07.2020 04:00:00 15,6 9,3 13,4 21,1 18,6 14 8 36 19 N 1021,1 38 0 0,0
04.07.2020 03:00:00 16,1 9,3 13,7 21,2 18,6 14 8 30 16 NNW 1020,9 57 0 0,0
04.07.2020 02:00:00 16,5 9,2 13,8 21,3 18,6 9 5 26 14 N 1020,7 43 0 0,0
04.07.2020 01:00:00 16,9 8,8 14,6 21,4 18,6 15 8 32 17 N 1020,7 13 0 0,0
04.07.2020 00:00:00 17,4 8,5 15,2 21,4 18,6 19 11 32 17 NNW 1020,4 45 0 0,0
03.07.2020 23:00:00 17,8 8,4 15,6 21,5 18,6 19 10 35 19 NNW 1019,9 48 0 0,0
03.07.2020 22:00:00 18,7 8,4 16,8 21,5 18,6 19 10 31 17 NNW 1019,3 48 0 0,0
03.07.2020 21:00:00 20,0 9,3 19,1 21,5 18,6 22 12 40 22 NNW 1018,6 50 25 0,0
03.07.2020 20:00:00 21,7 8,2 21,0 21,5 18,6 22 12 41 22 NNW 1017,6 20 26 0,0
03.07.2020 19:00:00 21,6 8,1 23,1 21,5 18,6 24 13 44 24 NNW 1017,4 5 31 0,0
03.07.2020 18:00:00 22,4 9,9 23,3 21,4 18,6 23 12 46 25 NNW 1017,4 13 10 0,0
03.07.2020 17:00:00 21,7 8,6 23,6 21,4 18,6 27 15 49 26 N 1017,5 18 0 0,0
03.07.2020 16:00:00 21,6 9,5 22,0 21,4 18,6 22 12 44 24 N 1017,5 18 1 0,0
03.07.2020 15:00:00 20,9 9,2 22,4 21,4 18,6 20 11 40 22 N 1017,9 28 0 0,0

tt = Température de l'air
td = dewpoint
tt 5cm = Température de l'air 5cm
tt -20cm = Température de l'air -20cm
tt -100cm = Température de l'air -100cm
ff = Vitesse du vent
fx = gusts
dd = Direction du vent
ppp = reduced air pressure
vv = visibility
sd = Ensoleillement
rr = Quantités de précipitations

stations d'obs. à proximité